Location: Bois de la Silve
(44.4667°N, 6.7833°E)
Time: 21:00:31
(UTC+00:00)

ATLAS 5 CENTAUR R/B - Pass Details

Date: 14 July 2020
Orbit: 534 x 1124 km, 63.4° (Epoch: 09 August)

Event Time Altitude Azimuth Distance (km) Brightness Sun altitude
Rises 01:34:49 0° 325° (NW) 3,241 5.6 -18.8°
Reaches altitude 10° 01:37:10 10° 332° (NNW) 2,401 5.0 -18.6°
Maximum altitude 01:42:34 46° 46° (NE) 1,204 3.4 -18.1°
Drops below altitude 10° 01:48:49 10° 118° (ESE) 2,778 4.9 -17.5°
Sets 01:51:43 0° 124° (SE) 3,800 5.6 -17.3°
